Hlavní strana
METAR-TAF:

METAR-TAF

Letiště :

Indianapolis, Indiana, Spojené státy americké

zeměpisná šířka: 40-01-50N, zeměpisná délka: 086-15-05W, výška: 281 m

Aktuální stav počasí

Zpráva byla vytvořena před 12 minutami, v 02:15 UTC
Jihozápadní vítr 3 kt
Teplota 5°C
Vlhkost vzduchu 75%
Tlak 1030 hPa
Viditelnost: 16.1 km
Jasno

METAR: KTYQ 190215Z AUTO 23003KT 10SM CLR 05/01 A3041 RMK AO2 T00460010

Čas: 20:27 (02:27 UTC)


TAF: chybějící

Stav a předpovědi počasí z více než 4 000 letišť (zprávy METAR a TAF).

Červené a žluté tečky na mapě představují dostupné meteorologické stanice.

Když kurzor umístíte na tečku, zobrazí se název stanice.

Pak kliknutím zobrazíte stav a předpověď počasí.

Chcete-li změnit mapu, kliknutím na zelené tlačítko se znaménkem +mapu přiblížíte, kliknutím na zelené tlačítko se znaménkem – mapu oddálíte a kliknutím na zelené šipky přejdete na sousední mapy.


METAR-TAF: